This is the latest recevied weather packets stored in our database for station/object WA4TPR. If no packets are shown the sender has not sent any weather packets the latest 10 day(s).
| Time | Temp. | Humidity | Pressure | Rain* | Wind** | Luminosity | Snow |
|---|---|---|---|---|---|---|---|
| 1777652149 | 29.44° C | 61% | 1016.8 hPa | 0 mm | - | 853 W/m² | - |
| 1777651845 | 28.89° C | 62% | 1016.7 hPa | 0 mm | - | 828 W/m² | - |
| 1777651542 | 30° C | 62% | 1016.9 hPa | 0 mm | - | 212 W/m² | - |
| 1777651239 | 30° C | 62% | 1016.8 hPa | 0 mm | - | 782 W/m² | - |
| 1777650936 | 30° C | 64% | 1016.6 hPa | 0 mm | - | 752 W/m² | - |
| 1777650633 | 28.89° C | 66% | 1016.5 hPa | 0 mm | - | 740 W/m² | - |
| 1777650330 | 28.33° C | 66% | 1016.7 hPa | 0 mm | - | 725 W/m² | - |
| 1777650027 | 28.89° C | 69% | 1016.7 hPa | 0 mm | - | 714 W/m² | - |
| 1777649725 | 28.33° C | 71% | 1016.9 hPa | 0 mm | - | 713 W/m² | - |
| 1777649421 | 27.78° C | 71% | 1016.9 hPa | 0 mm | - | 691 W/m² | - |
| 1777649118 | 28.33° C | 72% | 1016.7 hPa | 0 mm | - | 683 W/m² | - |
| 1777648816 | 28.33° C | 72% | 1017.1 hPa | 0 mm | - | 671 W/m² | - |
| 1777648512 | 27.78° C | 73% | 1016.8 hPa | 0 mm | - | 659 W/m² | - |
| 1777648209 | 27.78° C | 75% | 1016.9 hPa | 0 mm | - | 652 W/m² | - |
| 1777647904 | 27.78° C | 75% | 1017 hPa | 0 mm | - | 652 W/m² | - |
| 1777647601 | 27.22° C | 77% | 1017 hPa | 0 mm | - | 647 W/m² | - |
| 1777647297 | 26.67° C | 78% | 1017 hPa | 0 mm | - | 626 W/m² | - |
| 1777646996 | 26.67° C | 80% | 1017 hPa | 0 mm | - | 531 W/m² | - |
| 1777646691 | 26.67° C | 81% | 1017.1 hPa | 0 mm | - | 611 W/m² | - |
| 1777646387 | 26.11° C | 83% | 1017.1 hPa | 0 mm | - | 587 W/m² | - |
| 1777646083 | 25.56° C | 84% | 1017.1 hPa | 0 mm | - | 188 W/m² | - |
| 1777645780 | 25.56° C | 88% | 1017.1 hPa | 0 mm | - | 586 W/m² | - |
| 1777645478 | 24.44° C | 94% | 1017.1 hPa | 0 mm | - | 549 W/m² | - |
| 1777645173 | 23.33° C | 98% | 1017.4 hPa | 0 mm | - | 268 W/m² | - |
| 1777644869 | 23.33° C | 99% | 1017.4 hPa | 0 mm | - | 294 W/m² | - |
* Rain latest hour (hover to see other rain measurements)
** Current wind speed in m/s (hover to see current wind gust speed)